Flag for Tunisia Weather past 2 weeks in Tunis, Tunisia

72 °F

Thunderstorms. Passing clouds.

Feels Like: 67 °F
Forecast: 65 / 75 °F
Wind: 3 mph from Southeast

Location: Tunis-Carthage

Current Time: Oct 9, 2015 at 9:39:26 PM

Latest Report: Oct 9, 2015 at 9:00 PM

Visibility: 5 mi

Pressure: 29.71 "Hg

Humidity: 94%

Dew point: 70 °F

Location of TunisLocation

Historic Weather in Tunis — Graph


Tunis temperature yesterday

Maximum temperature yesterday: 75 °F (at 12:30 PM)
Minimum temperature yesterday: 66 °F (at 6:00 AM)
Average temperature yesterday: 71 °F

Past Weeks' High & Low Weather Summary

High91 °F (Oct 4, 2:00 PM)94% (Sep 29, 1:00 AM)30.21 "Hg (Sep 29, 1:00 AM)
Low63 °F (Sep 29, 1:30 AM)26% (Oct 4, 2:00 PM)29.65 "Hg (Oct 9, 7:30 PM)
Average74 °F67%30.03 "Hg
* Reported Sep 24 8:00 PM — Oct 9 8:30 PM, Tunis, Weather by CustomWeather, © 2015

Note: Actual official high and low records may vary slightly from our data, if they occured in-between our weather recording intervals... More about our weather records


Tunis weather history for previous 24 hours

Time TempWeatherWind HumidityBarometerVisibility
8:30 PM
Fri, Oct 9
72 °FThunderstorms. Passing clouds.No wind94%29.71 "Hg5 mi
8:00 PM72 °FThunderstorms. Passing clouds.3 mph88%29.68 "Hg4 mi
7:30 PM72 °FThunderstorms. Passing clouds.8 mph94%29.65 "Hg4 mi
7:00 PM72 °FThunderstorms. Passing clouds.8 mph94%29.71 "Hg4 mi
6:30 PM70 °FThunderstorms. Passing clouds.10 mph94%29.74 "Hg4 mi
6:00 PM72 °FThunderstorms. Passing clouds.8 mph88%29.77 "Hg4 mi
5:30 PM72 °FThunderstorms. Scattered clouds.14 mph88%29.77 "Hg3 mi
5:00 PM73 °FScattered clouds.7 mph83%29.77 "Hg5 mi
4:30 PM73 °FScattered clouds.8 mph83%29.77 "Hg5 mi
4:00 PM75 °FThunderstorms. Scattered clouds.8 mph78%29.80 "Hg5 mi
3:30 PM77 °FScattered clouds.8 mph69%29.80 "HgN/A
3:00 PM75 °FThunderstorms. Scattered clouds.10 mph69%29.80 "HgN/A
2:30 PM77 °FScattered clouds.10 mph61%29.83 "HgN/A
2:00 PM77 °FScattered clouds.9 mph65%29.80 "HgN/A
1:30 PM77 °FScattered clouds.10 mph57%29.83 "HgN/A
1:00 PM79 °FScattered clouds.10 mph58%29.83 "HgN/A
12:30 PM79 °FScattered clouds.9 mph58%29.86 "HgN/A
12:00 PM79 °FScattered clouds.6 mph51%29.86 "HgN/A
11:30 AM79 °FScattered clouds.7 mph54%29.86 "HgN/A
11:00 AM79 °FScattered clouds.8 mph54%29.89 "HgN/A
10:30 AM77 °FScattered clouds.8 mph61%29.89 "HgN/A
10:00 AM75 °FScattered clouds.8 mph65%29.89 "HgN/A
9:30 AM75 °FScattered clouds.9 mph65%29.86 "HgN/A
9:00 AM75 °FScattered clouds.8 mph69%29.86 "Hg5 mi
8:30 AM75 °FScattered clouds.3 mph74%29.86 "Hg5 mi
8:00 AM70 °FScattered clouds.No wind88%29.89 "Hg5 mi
7:30 AM68 °FScattered clouds.No wind94%29.89 "HgN/A
7:00 AM68 °FThunderstorms. Scattered clouds.3 mph88%29.89 "Hg5 mi
6:30 AM68 °FThunderstorms. Scattered clouds.3 mph88%29.89 "Hg5 mi
6:00 AM70 °FPassing clouds.No wind83%29.92 "HgN/A
5:30 AM70 °FPassing clouds.No wind83%29.92 "HgN/A
5:00 AM70 °FPassing clouds.3 mph83%29.92 "HgN/A
4:30 AM70 °FPassing clouds.No wind83%29.92 "HgN/A
4:00 AM66 °FPassing clouds.No wind94%29.92 "HgN/A
3:30 AM66 °FPassing clouds.No wind88%29.92 "HgN/A
3:00 AM68 °FPassing clouds.2 mph88%29.92 "HgN/A
2:30 AM68 °FPassing clouds.3 mph88%29.95 "HgN/A
2:00 AM68 °FPassing clouds.No wind88%29.95 "HgN/A
1:30 AM68 °FPassing clouds.No wind88%29.98 "HgN/A
1:00 AM68 °FPassing clouds.No wind88%29.98 "HgN/A
12:30 AM68 °FPassing clouds.No wind83%29.98 "HgN/A
12:00 AM72 °FPassing clouds.No wind78%29.98 "HgN/A
11:30 PM
Thu, Oct 8
72 °FPassing clouds.3 mph78%29.98 "HgN/A
11:00 PM72 °FPassing clouds.3 mph78%29.98 "HgN/A
10:30 PM72 °FPassing clouds.2 mph78%30.01 "HgN/A
10:00 PM72 °FPassing clouds.No wind78%30.01 "HgN/A
9:30 PM70 °FPassing clouds.No wind83%30.01 "HgN/A
9:00 PM68 °FPassing clouds.No wind83%30.01 "HgN/A
Weather by CustomWeather, © 2015

See weather overviewHow to use our weather pages